| time (UTC) | temp F | wind direction | speed MPH | gust MPH | rain 1hr in | rain 24hr in | rain mn in | humidity % | barometer mb |
| 20260502221544 | 77 | 273 | 1.0 | 1.0 | 0.00 | 0.00 | 0.00 | 35 | 1019.5 |
| 20260502214543 | 78 | 287 | 0.0 | 0.0 | 0.00 | 0.00 | 0.00 | 38 | 1019.8 |
| 20260502211538 | 78 | 281 | 2.0 | 2.0 | 0.00 | 0.00 | 0.00 | 37 | 1019.9 |
| 20260502204538 | 78 | 282 | 1.0 | 2.0 | 0.00 | 0.00 | 0.00 | 35 | 1020.3 |
| 20260502201537 | 78 | 356 | 3.0 | 3.0 | 0.00 | 0.00 | 0.00 | 36 | 1020.6 |
| 20260502194536 | 77 | 297 | 1.0 | 1.0 | 0.00 | 0.00 | 0.00 | 37 | 1021.1 |
| 20260502191534 | 77 | 350 | 3.0 | 3.0 | 0.00 | 0.00 | 0.00 | 34 | 1021.4 |
| 20260502184532 | 77 | 281 | 0.0 | 1.0 | 0.00 | 0.00 | 0.00 | 37 | 1021.7 |
| 20260502181527 | 77 | 204 | 0.0 | 0.0 | 0.00 | 0.00 | 0.00 | 37 | 1022.1 |
| 20260502161517 | 71 | 259 | 0.0 | 1.0 | 0.00 | 0.00 | 0.00 | 44 | 1023.1 |
| 20260502151027 | 68 | 288 | 0.0 | 1.0 | 0.00 | 0.00 | 0.00 | 55 | 1022.9 |
| 20260502121017 | 49 | 83 | 0.0 | 0.0 | 0.00 | 0.00 | 0.00 | 98 | 1021.2 |
| 20260502114015 | 49 | 83 | 0.0 | 0.0 | 0.00 | 0.00 | 0.00 | 98 | 1020.8 |
| 20260502111012 | 50 | 82 | 0.0 | 0.0 | 0.00 | 0.00 | 0.00 | 97 | 1020.0 |
| 20260502104008 | 51 | 83 | 0.0 | 0.0 | 0.00 | 0.00 | 0.00 | 97 | 1019.9 |
| 20260502101004 | 50 | 81 | 0.0 | 0.0 | 0.00 | 0.00 | 0.00 | 97 | 1019.6 |
| 20260502090957 | 50 | 82 | 0.0 | 0.0 | 0.00 | 0.00 | 0.00 | 98 | 1019.7 |
| 20260502070939 | 51 | 82 | 0.0 | 0.0 | 0.00 | 0.00 | 0.00 | 97 | 1019.6 |
| 20260502063936 | 51 | 82 | 0.0 | 0.0 | 0.00 | 0.00 | 0.00 | 97 | 1019.7 |
| 20260502060932 | 52 | 82 | 0.0 | 0.0 | 0.00 | 0.00 | 0.00 | 96 | 1019.5 |
| 20260502053929 | 53 | 82 | 0.0 | 0.0 | 0.00 | 0.00 | 0.00 | 95 | 1019.7 |
| 20260502050926 | 54 | 82 | 0.0 | 0.0 | 0.00 | 0.00 | 0.00 | 93 | 1019.6 |
| 20260502043923 | 55 | 82 | 0.0 | 0.0 | 0.00 | 0.00 | 0.00 | 92 | 1019.4 |
| 20260502040921 | 56 | 82 | 0.0 | 0.0 | 0.00 | 0.00 | 0.00 | 90 | 1019.3 |
| 20260502033917 | 57 | 82 | 0.0 | 0.0 | 0.00 | 0.00 | 0.00 | 88 | 1019.5 |
| 20260502030912 | 59 | 83 | 0.0 | 0.0 | 0.00 | 0.00 | 0.00 | 84 | 1019.1 |
| 20260502023910 | 59 | 83 | 0.0 | 0.0 | 0.00 | 0.00 | 0.00 | 82 | 1019.0 |
| 20260502020909 | 60 | 83 | 0.0 | 0.0 | 0.00 | 0.00 | 0.00 | 80 | 1018.7 |
| 20260502013908 | 60 | 83 | 0.0 | 0.0 | 0.00 | 0.00 | 0.00 | 77 | 1018.1 |
| 20260502010907 | 60 | 79 | 0.0 | 0.0 | 0.00 | 0.00 | 0.00 | 78 | 1017.4 |
| 20260502003906 | 62 | 74 | 0.0 | 0.0 | 0.00 | 0.00 | 0.00 | 74 | 1017.0 |
| 20260502000907 | 62 | 74 | 0.0 | 0.0 | 0.00 | 0.00 | 0.00 | 72 | 1016.8 |
| 20260501233904 | 63 | 72 | 0.0 | 1.0 | 0.00 | 0.00 | 0.00 | 70 | 1016.2 |
| 20260501230859 | 63 | 70 | 0.0 | 1.0 | 0.00 | 0.00 | 0.00 | 68 | 1016.1 |